Location: Ahstedt
(52.2048°N, 10.1060°E)
Time: 23:59:54
(UTC+00:00)

Cosmos 1470 Rocket - Pass Details

Date: 18 January 2026
Orbit: 598 x 625 km, 82.5° (Epoch: 18 February)

Event Time Altitude Azimuth Distance (km) Brightness Sun altitude
Rises 05:51:07 0° 186° (S) 2,839 7.1 -13.0°
Reaches altitude 10° 05:53:19 10° 185° (S) 1,939 6.3 -12.6°
Maximum altitude 05:57:36 81° 99° (E) 613 3.6 -12.0°
Drops below altitude 10° 06:01:54 10° 12° (NNE) 1,951 6.1 -11.4°
Sets 06:04:07 0° 12° (NNE) 2,859 6.9 -11.1°
